sat.trackr.live / text

‹ back to catalog

STARLINK-35347

NORAD 65907 · 2025-224AB

PAYLOAD ACTIVE UNKNOWN

§ Identity

Operator
Country
US
Launch date
2025-10-07
Launch site
AFETR
Launch vehicle
Mass (kg)
RCS (m²)

Purposes: comms

External: N2YO · Heavens-Above · Gunter

§ Orbital elements

Epoch: 2026-09-20T07:02:11.327424Z

Period
93.85 min
Inclination
53.1577°
Eccentricity
0.0001245
Mean motion
15.34413413 rev/d
Perigee alt
461.8 km
Apogee alt
463.5 km
Semi-major
6,840.8 km
B*
6.9543e-4
RAAN
182.8397°
Arg perigee
96.1235°
Mean anomaly
263.9910°
Rev number
5,471

§ Raw data

STARLINK-353471 65907U 25224AB  26263.29318666  .00023203  00000+0  69543-3 0  99912 65907  53.1577 182.8397 0001245  96.1235 263.9910 15.34413413 54719

JSON: /api/v1/satellites/65907 · /tle

For live sub-satellite position, see the globe view (requires WebGL).

§ Visibility from observer

Set your observer location to see the next 7 days of passes ≥ 10°. The values pass through the URL so the page stays shareable.

No JS? Fill the form by hand. The geolocation button needs JavaScript.